TimeCST,TemperatureF,Dew PointF,Humidity,Sea Level PressureIn,VisibilityMPH,Wind Direction,Wind SpeedMPH,Gust SpeedMPH,PrecipitationIn,Events,Conditions,WindDirDegrees,DateUTC
12:00 AM,-5.8,-7.6,92,30.34,10.0,NE,10.4,-,N/A,,Clear,50,2013-02-20 06:00:00
12:20 AM,-5.8,-9.4,84,30.34,10.0,ENE,10.4,-,N/A,,Clear,60,2013-02-20 06:20:00
12:40 AM,-5.8,-9.4,84,30.35,10.0,ENE,9.2,-,N/A,,Clear,60,2013-02-20 06:40:00
1:00 AM,-7.6,-9.4,92,30.34,10.0,ENE,10.4,-,N/A,,Clear,60,2013-02-20 07:00:00
1:20 AM,-7.6,-9.4,92,30.34,10.0,ENE,9.2,-,N/A,,Clear,60,2013-02-20 07:20:00
1:40 AM,-7.6,-9.4,92,30.35,10.0,ENE,5.8,-,N/A,,Clear,60,2013-02-20 07:40:00
2:00 AM,-7.6,-9.4,92,30.34,10.0,ENE,9.2,-,N/A,,Clear,60,2013-02-20 08:00:00
2:20 AM,-7.6,-9.4,92,30.34,10.0,ENE,4.6,-,N/A,,Clear,60,2013-02-20 08:20:00
2:40 AM,-7.6,-9.4,92,30.33,10.0,ENE,8.1,-,N/A,,Clear,60,2013-02-20 08:40:00
3:00 AM,-7.6,-9.4,92,30.32,10.0,ENE,10.4,-,N/A,,Clear,60,2013-02-20 09:00:00
3:20 AM,-7.6,-11.2,84,30.31,10.0,ENE,12.7,-,N/A,,Clear,60,2013-02-20 09:20:00
3:40 AM,-9.4,-11.2,92,30.32,10.0,Calm,Calm,-,N/A,,Clear,0,2013-02-20 09:40:00
4:00 AM,-9.4,-11.2,92,30.33,10.0,ESE,3.5,-,N/A,,Clear,110,2013-02-20 10:00:00
4:20 AM,-9.4,-11.2,92,30.33,10.0,ENE,5.8,-,N/A,,Clear,60,2013-02-20 10:20:00
4:40 AM,-9.4,-11.2,92,30.33,10.0,ENE,5.8,-,N/A,,Clear,70,2013-02-20 10:40:00
5:00 AM,-9.4,-11.2,92,30.33,10.0,East,4.6,-,N/A,,Clear,80,2013-02-20 11:00:00
5:20 AM,-9.4,-11.2,92,30.32,10.0,East,3.5,-,N/A,,Clear,80,2013-02-20 11:20:00
6:00 AM,-9.4,-11.2,92,30.31,10.0,ENE,5.8,-,N/A,,Clear,70,2013-02-20 12:00:00
6:20 AM,-9.4,-11.2,92,30.30,10.0,ENE,11.5,-,N/A,,Clear,70,2013-02-20 12:20:00
6:40 AM,-7.6,-9.4,92,30.30,10.0,East,10.4,-,N/A,,Clear,80,2013-02-20 12:40:00
7:00 AM,-7.6,-9.4,92,30.30,10.0,East,8.1,-,N/A,,Clear,100,2013-02-20 13:00:00
7:20 AM,-5.8,-9.4,84,30.31,10.0,East,8.1,-,N/A,,Clear,100,2013-02-20 13:20:00
8:00 AM,-4.0,-7.6,85,30.31,10.0,East,10.4,-,N/A,,Clear,90,2013-02-20 14:00:00
8:20 AM,-4.0,-7.6,85,30.31,10.0,East,10.4,-,N/A,,Clear,90,2013-02-20 14:20:00
9:00 AM,-2.2,-4.0,92,30.32,10.0,ESE,9.2,-,N/A,,Clear,110,2013-02-20 15:00:00
9:20 AM,-0.4,-4.0,85,30.31,10.0,ESE,10.4,-,N/A,,Clear,110,2013-02-20 15:20:00
9:40 AM,-0.4,-2.2,92,30.31,10.0,SE,10.4,-,N/A,,Partly Cloudy,130,2013-02-20 15:40:00
10:00 AM,1.4,-2.2,85,30.31,10.0,SE,13.8,-,N/A,,Mostly Cloudy,140,2013-02-20 16:00:00
10:20 AM,1.4,-0.4,92,30.31,10.0,SE,11.5,-,N/A,,Mostly Cloudy,140,2013-02-20 16:20:00
11:00 AM,5.0,-0.4,78,30.30,10.0,SE,11.5,-,N/A,,Mostly Cloudy,130,2013-02-20 17:00:00
11:20 AM,5.0,1.4,85,30.30,10.0,SE,11.5,-,N/A,,Mostly Cloudy,140,2013-02-20 17:20:00
11:40 AM,6.8,1.4,79,30.30,10.0,SE,10.4,-,N/A,,Mostly Cloudy,130,2013-02-20 17:40:00
12:00 PM,6.8,3.2,85,30.31,10.0,SE,11.5,-,N/A,,Overcast,140,2013-02-20 18:00:00
12:20 PM,8.6,5.0,85,30.31,10.0,SSE,11.5,-,N/A,,Overcast,150,2013-02-20 18:20:00
12:40 PM,6.8,1.4,79,30.31,10.0,SSE,11.5,-,N/A,,Overcast,150,2013-02-20 18:40:00
1:00 PM,8.6,5.0,85,30.30,10.0,SE,12.7,18.4,N/A,,Mostly Cloudy,140,2013-02-20 19:00:00
1:20 PM,8.6,5.0,85,30.29,10.0,SE,12.7,-,N/A,,Mostly Cloudy,140,2013-02-20 19:20:00
1:40 PM,10.4,6.8,85,30.27,10.0,SE,11.5,18.4,N/A,,Mostly Cloudy,130,2013-02-20 19:40:00
2:00 PM,10.4,8.6,92,30.26,10.0,ESE,12.7,-,N/A,,Partly Cloudy,120,2013-02-20 20:00:00
2:20 PM,14.0,8.6,79,30.25,10.0,ESE,13.8,-,N/A,,Scattered Clouds,120,2013-02-20 20:20:00
2:40 PM,14.0,10.4,86,30.24,10.0,ESE,13.8,-,N/A,,Mostly Cloudy,120,2013-02-20 20:40:00
3:00 PM,14.0,10.4,86,30.24,10.0,ESE,15.0,-,N/A,,Overcast,120,2013-02-20 21:00:00
3:20 PM,15.8,10.4,79,30.24,10.0,SE,16.1,-,N/A,,Overcast,130,2013-02-20 21:20:00
3:40 PM,15.8,10.4,79,30.23,10.0,ESE,15.0,-,N/A,,Overcast,120,2013-02-20 21:40:00
4:00 PM,15.8,10.4,79,30.22,10.0,SE,16.1,19.6,N/A,,Overcast,130,2013-02-20 22:00:00
4:20 PM,15.8,10.4,79,30.22,10.0,SE,13.8,-,N/A,,Overcast,130,2013-02-20 22:20:00
4:40 PM,15.8,10.4,79,30.22,10.0,SE,15.0,-,N/A,,Overcast,130,2013-02-20 22:40:00
5:00 PM,15.8,10.4,79,30.21,10.0,ESE,15.0,-,N/A,,Overcast,110,2013-02-20 23:00:00
5:15 PM,15.8,10.4,79,30.21,10.0,ESE,15.0,-,N/A,,Overcast,110,2013-02-20 23:15:00
5:40 PM,15.8,12.2,86,30.20,10.0,East,16.1,-,N/A,,Overcast,100,2013-02-20 23:40:00
6:00 PM,15.8,12.2,86,30.20,10.0,East,15.0,-,N/A,,Overcast,100,2013-02-21 00:00:00
6:20 PM,14.0,14.0,100,30.20,10.0,East,15.0,-,N/A,,Overcast,100,2013-02-21 00:20:00
6:40 PM,14.0,14.0,100,30.20,10.0,East,16.1,-,N/A,,Overcast,90,2013-02-21 00:40:00
7:00 PM,14.0,14.0,100,30.20,10.0,East,16.1,-,N/A,,Overcast,100,2013-02-21 01:00:00
7:20 PM,14.0,14.0,100,30.20,10.0,East,15.0,-,N/A,,Overcast,100,2013-02-21 01:20:00
7:40 PM,12.2,12.2,100,30.20,10.0,East,16.1,-,N/A,,Overcast,100,2013-02-21 01:40:00
8:00 PM,12.2,12.2,100,30.21,10.0,ESE,12.7,-,N/A,,Overcast,110,2013-02-21 02:00:00
8:20 PM,12.2,12.2,100,30.21,10.0,East,15.0,-,N/A,,Overcast,100,2013-02-21 02:20:00
9:00 PM,10.4,10.4,100,30.21,10.0,ESE,13.8,-,N/A,,Overcast,110,2013-02-21 03:00:00
9:20 PM,10.4,10.4,100,30.22,10.0,ESE,12.7,-,N/A,,Overcast,110,2013-02-21 03:20:00
9:40 PM,10.4,10.4,100,30.22,10.0,East,12.7,-,N/A,,Overcast,100,2013-02-21 03:40:00
10:00 PM,10.4,10.4,100,30.22,10.0,ESE,11.5,-,N/A,,Overcast,110,2013-02-21 04:00:00
10:20 PM,8.6,8.6,100,30.22,10.0,ESE,12.7,-,N/A,,Overcast,110,2013-02-21 04:20:00
10:40 PM,8.6,8.6,100,30.21,10.0,East,12.7,-,N/A,,Mostly Cloudy,100,2013-02-21 04:40:00
11:00 PM,8.6,8.6,100,30.22,10.0,East,11.5,-,N/A,,Mostly Cloudy,100,2013-02-21 05:00:00
11:20 PM,8.6,8.6,100,30.22,10.0,ESE,11.5,-,N/A,,Overcast,110,2013-02-21 05:20:00
11:40 PM,8.6,8.6,100,30.22,10.0,ESE,11.5,-,N/A,,Overcast,110,2013-02-21 05:40:00